Location: Kingston
(44.2312°N, 76.4860°W)
Time: 22:10:50
(UTC-04:00)

Envisat - Visible Passes

Search period start: 19 September 2018 00:00
Search period end: 29 September 2018 00:00
Orbit: 764 x 766 km, 98.2° (Epoch: 19 September)

Date Brightness Start Highest point End Pass type
(mag) Time Alt. Az. Time Alt. Az. Time Alt. Az.
19 Sep 3.0 20:06:28 10° SSE 20:11:33 86° WSW 20:16:40 10° NNW visible
19 Sep 6.1 21:50:31 10° W 21:51:19 10° W 21:52:07 10° WNW visible
20 Sep 3.3 19:30:06 10° SE 19:34:55 45° ENE 19:39:45 10° N visible
20 Sep 5.2 21:10:07 10° SW 21:14:08 23° W 21:18:10 10° NW visible
21 Sep 3.9 20:32:15 10° S 20:37:09 50° W 20:42:06 10° NNW visible
22 Sep 2.9 19:55:19 10° SSE 20:00:23 77° ENE 20:05:29 10° N visible
22 Sep 5.8 21:37:32 10° WSW 21:39:59 13° W 21:42:26 10° WNW visible
23 Sep 4.9 20:58:29 10° SSW 21:02:52 29° W 21:07:16 10° NW visible
24 Sep 3.5 20:20:56 10° S 20:25:57 63° W 20:31:01 10° NNW visible
25 Sep 3.0 19:44:14 10° SSE 19:49:14 62° ENE 19:54:15 10° N visible
25 Sep 5.7 21:25:24 10° SW 21:28:40 17° W 21:31:57 10° NW visible
26 Sep 4.5 20:46:57 10° SSW 20:51:37 36° W 20:56:18 10° NNW visible
27 Sep 3.1 20:09:41 10° S 20:14:45 79° WSW 20:19:52 10° NNW visible
28 Sep 3.2 19:33:13 10° SE 19:38:05 49° ENE 19:43:00 10° N visible
28 Sep 5.3 21:13:33 10° SW 21:17:22 21° W 21:21:14 10° NW visible
